Weather in Kiliya

Ukraine / Odesa District     45°27′01″N   29°15′57″E
temp.,
°C
wind,
m/s
gust,
m/s
humid.,
%
clouds,
%
prec.,
mm/h
press.,
hPa
HPBL,
m
22 april, thu
thu2200:00+9s34805 0.0 101844
03:00+9ssw338551 0.4 101830
06:00+8ssw22825 0.0 101915
09:00+13sw34635 0.0 1020363
12:00+18sw56461 0.0 10191727
15:00+19sw673895 0.0 10192541
18:00+15ssw810565 0.0 1018532
21:00+12s61166100 0.0 1019278
23 april, fri
fri2300:00+11s5978100 0.0 1018186
03:00+10s4884100 0.0 1017159
06:00+10ssw3582100 0.0 101790
09:00+15ssw3465100 0.0 1018360
12:00+17w7755100 0.4 10171285
15:00+14wnw5761100 0.4 10171076
18:00+14wnw677099 1.2 1017931
21:00+8n598898 2.5 1020385
24 april, sat
sat2400:00+6nnw37901 0.0 1021246
03:00+5nnw34891 0.0 102169
06:00+5wnw33870 0.0 102232
09:00+10nw34613 0.0 1023459
12:00+14nw454471 0.0 10222009
15:00+13n555059 0.0 10231171
18:00+13nnw444485 0.0 10231560
21:00+9e2259100 0.0 102430
25 april, sun
sun2500:00+7sse1174100 0.0 102411
03:00+6se22785 0.0 102414
06:00+6sse228111 0.0 102318
09:00+11sse454620 0.0 1022579
12:00+15ssw443995 0.0 10221822
15:00+15sw554141 0.0 10201829
18:00+14ssw674381 0.0 1019857
21:00+9s495665 0.0 1020243
26 april, mon
mon2600:00+9ese1270100 0.8 1021122
03:00+9nnw3473100 1.0 1020303
06:00+6nne368648 0.0 1021257
09:00+9nne45520 0.0 1022700
12:00+12n23375 0.0 10221556
15:00+15wnw34346 0.0 10202182
18:00+15wsw243657 0.0 10191815
21:00+9s595923 0.0 1020302